This is the latest recevied weather packets stored in our database for station/object K5NOC-12. If no packets are shown the sender has not sent any weather packets the latest 10 day(s).
| Time | Temp. | Humidity | Pressure | Rain* | Wind** | Luminosity | Snow |
|---|---|---|---|---|---|---|---|
| 1777522261 | 13.33° C | 49% | 1017.5 hPa | 0 mm | - | - | - |
| 1777521361 | 13.89° C | 48% | 1017.4 hPa | 0 mm | - | - | - |
| 1777520461 | 13.89° C | 47% | 1017.4 hPa | 0 mm | - | - | - |
| 1777519561 | 15° C | 46% | 1017.3 hPa | 0 mm | - | - | - |
| 1777518661 | 15.56° C | 45% | 1017 hPa | 0 mm | - | - | - |
| 1777517761 | 15.56° C | 44% | 1016.9 hPa | 0 mm | - | - | - |
| 1777516861 | 16.11° C | 43% | 1016.5 hPa | 0 mm | - | - | - |
| 1777515960 | 16.11° C | 43% | 1016.4 hPa | 0 mm | - | - | - |
| 1777515060 | 16.67° C | 42% | 1016 hPa | 0 mm | - | - | - |
| 1777514160 | 17.22° C | 40% | 1016 hPa | 0 mm | - | - | - |
| 1777513260 | 17.22° C | 39% | 1015.6 hPa | 0 mm | - | - | - |
| 1777512360 | 17.78° C | 37% | 1015.5 hPa | 0 mm | - | - | - |
| 1777511460 | 18.33° C | 36% | 1015.5 hPa | 0 mm | - | - | - |
| 1777510560 | 18.89° C | 34% | 1015.5 hPa | 0 mm | - | - | - |
| 1777509660 | 19.44° C | 33% | 1015.5 hPa | 0 mm | - | - | - |
| 1777508759 | 20° C | 32% | 1015.6 hPa | 0 mm | - | - | - |
| 1777507859 | 20° C | 32% | 1015.6 hPa | 0 mm | - | - | - |
| 1777506959 | 20.56° C | 31% | 1015.5 hPa | 0 mm | - | - | - |
| 1777506059 | 20.56° C | 31% | 1015.4 hPa | 0 mm | - | - | - |
| 1777505159 | 20.56° C | 31% | 1015.5 hPa | 0 mm | - | - | - |
| 1777504258 | 20.56° C | 31% | 1015.5 hPa | 0 mm | - | - | - |
| 1777503358 | 20° C | 30% | 1015.5 hPa | 0 mm | - | - | - |
| 1777502458 | 20° C | 30% | 1015.3 hPa | 0 mm | - | - | - |
| 1777501558 | 20.56° C | 27% | 1015.4 hPa | 0 mm | - | - | - |
| 1777500658 | 20.56° C | 28% | 1015.5 hPa | 0 mm | - | - | - |
* Rain latest hour (hover to see other rain measurements)
** Current wind speed in m/s (hover to see current wind gust speed)